UNEE

Details ICAO UNEE (KEJ)
Name KEMEROVO
Region Russia
Timezone Asia/Novokuznetsk (UTC+7.0)
Plans Departing 47
Arriving 38
Stats Elevation 863 ft / 263 m (AMSL)
Location 55.271271° 86.107893°
Runways 2
Magnetic Variation 7.381° E
Sunrise 2018-05-22 21:55:31 UTC / 2018-05-23 04:55:31 Local
Sunset 2018-05-23 14:31:56 UTC / 2018-05-23 21:31:56 Local
Advertisement - Login to hide

Runways

ID Width Length Bearing (true) Bearing (mag) Surface Threshold Offset Overrun Length
05 197 ft / 60 m 10,486 ft / 3,196 m 53.55° 46.17° Concrete 0 ft / 0 m 235 ft / 72 m
05L 155 ft / 47 m 8,637 ft / 2,633 m 55.18° 47.80° Asphalt 0 ft / 0 m 160 ft / 49 m
23 197 ft / 60 m 10,486 ft / 3,196 m 233.58° 226.20° Concrete 0 ft / 0 m 235 ft / 72 m
23R 155 ft / 47 m 8,637 ft / 2,633 m 235.20° 227.82° Asphalt 0 ft / 0 m 0 ft / 0 m

Map

Weather


0- 5 10 15 20 25 30 35+ Temperature / ° C

Clouds and Precipitation
Forecast for 2018-05-23 06:00 UTC. Updated 18 minutes ago

Ground ~20,000 ft ~40,000 ft Winds

METAR

UNEE 230530Z 32005MPS 9999 OVC032 08/00 Q0998 R23/CLRD60 NOSIG RMK QFE726

TAF

TAF UNEE 230200Z 2303/2403 36003G08MPS 9999 BKN020CB TEMPO 2305/2403 3100 -SHRA BKN011CB BECMG 2310/2312 35010G18MPS

Frequencies

Tower 118.30 MHz START
Approach 125.50 MHz APP
Approach 129.00 MHz APP
Approach 128.50 MHz APP
Warning: Do not use this data for real-world aviation or navigation. No guarantee of current accuracy is given.